World > North America > United States > New York > Hancock

Hancock, NY Hourly Weather Conditions

Feedback E-mail the Weather

Quick WX

Hancock, NY Weather Maps

°F °C°F °C
Hancock Weather Map
UTC Time: 12/2/2022, 12:28
Your Time:

Hancock, NY Regional Weather

Expires:202212021300;;174251
ASUS41 KBGM 021210
RWRBGM

REGIONAL WEATHER ROUNDUP
NATIONAL WEATHER SERVICE BINGHAMTON NY
700 AM EST FRI DEC 02 2022

Note: "fair" indicates few or no clouds below 12,000 feet with no
significant weather and/or obstructions to visibility.

* = Station(s) that does not report precipitation, such as rain, 
snow, etc, also no thunder or fog.


NYZ009-015>018-022>025-036-037-044>046-055>057-062-021300
...Central New York...
  
CITY           SKY/WX    TMP DP  RH WIND       PRES   REMARKS
Binghamton     CLEAR     21  18  88 S3        30.41S                  
Cortland       FAIR      19  18  93 CALM      30.43F                  
Dansville      CLEAR     26  21  81 SE10      30.41S WCI  16          
Elmira         CLEAR     20  17  88 CALM      30.43F                  
Endicott       SUNNY     19  19 100 CALM      30.48                   
Ithaca         PTCLDY    23  21  92 SE7       30.43F WCI  15          
Hamilton       CLEAR     21  19  93 E5        30.44S WCI  15          
Monticello     CLEAR     18  17  96 W3          N/A                   
Norwich        CLEAR     19  18  93 SW3       30.49S                  
Oneonta          N/A     19  18  93 SW3       30.42R                  
Penn Yan       MOCLDY    25  20  81 SE6       30.41F WCI  18          
Rome           CLEAR     25  21  85 E5        30.48R WCI  19          
Seneca Falls   PTSUNNY   28  25  86 S6        30.45F WCI  22          
Sidney         CLEAR     19  19 100 CALM      30.47S                  
Skaneateles    CLOUDY    27  23  86 S5        30.42S WCI  21          
Syracuse       PTCLDY    28  21  75 S5        30.46R WCI  23          
$$
 

SKY/WX - Weather  TMP - Temperature  DP - Dew Point  RH - Humidity
WIND - Wind Direction/Speed PRES - Barometric Pressure VSB - Visibility
WCI - Wind Chill Index E13G22 Wind - East Wind 13 mph/Gusts of 22 mph

Trending Headlines

Trending Entertainment Headlines

Hancock Radar Loop

Use the map search tool if you want to place a location marker on the radar map...

Hancock Quick Facts

National Two Day Weather Forecast


E-mail the Hancock Weather Forecast

Voice your opinion or tell us about page issues...